Regional Weather Roundup
Issued by NWS Midland/Odessa, TX

Home | Current Version | Previous Version | Text Only | Print | Product List | Glossary On
Versions: 1 2 3 4 5 6 7 8 9 10 11 12 13 14 15 16 17 18 19 20 21 22 23 24 25 26 27 28 29 30 31 32 33 34 35 36 37 38 39 40 41 42 43 44 45 46 47 48 49 50
000
ASUS44 KMAF 280310
RWRMAF
MIDLAND AREA WEATHER ROUNDUP
NATIONAL WEATHER SERVICE MIDLAND TX
900 PM CST FRI FEB 27 2015

...IN SOUTHWEST TEXAS AND SOUTHEAST NEW MEXICO...

CITY           SKY/WX    TMP DP  RH WIND       PRES   REMARKS
ALPINE         CLOUDY    26  25  96 NE3       30.11S
ANDREWS        CLOUDY    18  17  95 E10       30.21S FOG     WCI   6
ARTESIA        CLOUDY    23  21  93 SE13      30.14S WCI  11
BIG SPRING     CLOUDY    19  15  86 NE13      30.28R WCI   5
CARLSBAD       CLOUDY    25  18  74 SE12      30.14S WCI  14
DRYDEN           N/A     34  31  88 E12       30.17S WCI  25
FORT STOCKTON  CLOUDY    26  26 100 E15       30.16R FOG     WCI  14
GUAD PASS      CLOUDY    18  14  84 NE17G25   29.93S FOG     WCI   3
HOBBS          CLOUDY    18  18 100 E13       30.16S FOG     WCI   4
MARFA          PTCLDY    25  23  93 NE10      30.02S WCI  15
MIDLAND AIRPK  LGT SNOW  21  19  91 E10       30.25R WCI   9
MIDLAND INTL   CLOUDY    19  17  92 E14       30.23R FOG     WCI   6
ODESSA         CLOUDY    20  17  88 E13       30.22R FOG     WCI   7
PECOS          CLOUDY    25  23  93 E12       30.20R FOG     WCI  14
PRESIDIO       FAIR      36  29  75 NE18G30   30.02R WCI  26
SEMINOLE       CLOUDY    18  17  94 E12       30.21R FOG     WCI   6
SNYDER         CLOUDY    16  13  89 NE9       30.30S WCI   4
WINK           CLOUDY    23  18  81 E14       30.19R HAZE    WCI  11
$$
...OTHER STATIONS IN TEXAS...

CITY           SKY/WX    TMP DP  RH WIND       PRES   REMARKS
ABILENE        CLOUDY    20  18  92 NE6       30.35R FOG     WCI  12
AMARILLO       CLOUDY    12   8  84 SE16      30.22R WCI  -5
AUSTIN         CLOUDY    33  29  85 N15       30.36R WCI  23
BROWNSVILLE    CLOUDY    62  57  83 N3        30.16R
CORPUS CHRISTI LGT RAIN  48  44  86 NE22G29   30.24R
DALLAS FTW     LGT SNOW  26  22  84 NE9       30.44S FOG     WCI  17
DEL RIO        CLOUDY    38  35  89 E7        30.27F WCI  33
EL PASO        PTCLDY    34  21  59 NE12      29.92R WCI  25
HOUSTON INT    CLOUDY    45  32  60 NE13      30.35R WCI  39
LUBBOCK        FLURRIES  14  10  84 E10       30.21S WCI   1
SAN ANGELO     CLOUDY    24  22  91 E14       30.29S WCI  12
SAN ANTONIO    CLOUDY    33  30  88 N8        30.32R WCI  26
WACO           FRZ RAIN  29  25  85 NE9       30.42R WCI  20
WICHITA FALLS  NOT AVBL
$$
...OTHER LOCATIONS IN NEW MEXICO...

CITY           SKY/WX    TMP DP  RH WIND       PRES   REMARKS
ALAMAGORDO     PTCLDY    32  23  69 MISG      29.93R
ALBUQUERQUE    LGT SNOW  24  22  91 N7        29.90R VSB 1   WCI  16
CANNON AFB     FLURRIES  12   9  85 SE9       30.11S WCI   0
CLOVIS         CLOUDY    12   9  85 SE12      30.13S WCI  -2
HOLLOMAN AFB   PTCLDY    34  22  61 S9        29.92R WCI  27
ROSWELL        CLOUDY    22  17  81 E10       30.12S WCI  11
RUIDOSO        FOG       14  10  85 MISG      29.95R VSB<1/4
SANTA FE       LGT SNOW  18  13  80 SE14      29.88S WCI   4
TRUTH OR CONSE PTCLDY    39  26  59 E5        29.86R WCI  36
TUCUMCARI      CLOUDY    16  10  77 S10       30.11S WCI   4
$$


USA.gov is the U.S. government's official web portal to all federal, state and local government web resources and services.